Wetterdaten: aktuell Sonntag, 17.11.2019 03:40
Datum Zeit Temp. A. Temp. A. min Feuchte A. Luftdruck Regen Wind Richtung Richtung Sonnenschein Solar Taupunkt Windchill Windben
17.11.2019 03:40 2,0 C 2,0 C 95 % 1018,6 hPa 0,0 l/m 0,0 km/h (0 Bft) NW 324 0 min 0 W/m 1,3 C 2,0 C 0,0 km/h (0 Bft)
17.11.2019 03:35 2,0 C 2,0 C 95 % 1018,6 hPa 0,0 l/m 0,0 km/h (0 Bft) NW 324 0 min 0 W/m 1,3 C 2,0 C 0,0 km/h (0 Bft)
17.11.2019 03:30 2,0 C 1,9 C 95 % 1018,7 hPa 0,0 l/m 0,4 km/h (0 Bft) NW 324 0 min 0 W/m 1,3 C 2,0 C 3,2 km/h (1 Bft)
17.11.2019 03:25 1,9 C 1,9 C 95 % 1018,7 hPa 0,0 l/m 2,6 km/h (1 Bft) NW 324 0 min 0 W/m 1,2 C 1,9 C 4,8 km/h (1 Bft)
17.11.2019 03:20 1,9 C 1,9 C 95 % 1018,9 hPa 0,0 l/m 1,2 km/h (1 Bft) NW 324 0 min 0 W/m 1,2 C 1,9 C 3,2 km/h (1 Bft)
17.11.2019 03:15 1,9 C 1,9 C 95 % 1018,9 hPa 0,0 l/m 0,0 km/h (0 Bft) NW 324 0 min 0 W/m 1,2 C 1,9 C 0,0 km/h (0 Bft)
17.11.2019 03:10 1,9 C 1,9 C 95 % 1019,0 hPa 0,0 l/m 0,4 km/h (0 Bft) NW 324 0 min 0 W/m 1,2 C 1,9 C 3,2 km/h (1 Bft)
17.11.2019 03:05 1,9 C 1,9 C 95 % 1019,0 hPa 0,0 l/m 1,6 km/h (1 Bft) NW 324 0 min 0 W/m 1,2 C 1,9 C 3,2 km/h (1 Bft)
17.11.2019 03:00 1,9 C 1,9 C 95 % 1019,0 hPa 0,0 l/m 2,0 km/h (1 Bft) NW 324 0 min 0 W/m 1,2 C 1,9 C 3,2 km/h (1 Bft)
17.11.2019 02:55 1,9 C 1,8 C 95 % 1019,1 hPa 0,0 l/m 1,1 km/h (1 Bft) NW 324 0 min 0 W/m 1,2 C 1,9 C 3,2 km/h (1 Bft)
17.11.2019 02:50 1,9 C 1,8 C 95 % 1019,3 hPa 0,0 l/m 1,1 km/h (1 Bft) NW 324 0 min 0 W/m 1,2 C 1,9 C 3,2 km/h (1 Bft)
17.11.2019 02:45 1,9 C 1,8 C 95 % 1019,4 hPa 0,0 l/m 0,0 km/h (0 Bft) NW 324 0 min 0 W/m 1,2 C 1,9 C 0,0 km/h (0 Bft)
17.11.2019 02:40 1,8 C 1,8 C 95 % 1019,4 hPa 0,0 l/m 0,5 km/h (0 Bft) NW 324 0 min 0 W/m 1,1 C 1,8 C 3,2 km/h (1 Bft)
17.11.2019 02:35 1,9 C 1,8 C 95 % 1019,6 hPa 0,0 l/m 1,1 km/h (1 Bft) NW 324 0 min 0 W/m 1,2 C 1,9 C 3,2 km/h (1 Bft)
17.11.2019 02:30 1,9 C 1,8 C 95 % 1019,6 hPa 0,0 l/m 0,3 km/h (0 Bft) NW 324 0 min 0 W/m 1,2 C 1,9 C 3,2 km/h (1 Bft)
17.11.2019 02:25 1,9 C 1,9 C 95 % 1019,5 hPa 0,0 l/m 0,6 km/h (0 Bft) NW 324 0 min 0 W/m 1,2 C 1,9 C 3,2 km/h (1 Bft)
17.11.2019 02:20 1,9 C 1,9 C 95 % 1019,6 hPa 0,0 l/m 0,0 km/h (0 Bft) NW 324 0 min 0 W/m 1,2 C 1,9 C 0,0 km/h (0 Bft)
17.11.2019 02:15 1,9 C 1,9 C 94 % 1019,6 hPa 0,0 l/m 0,9 km/h (0 Bft) NW 324 0 min 0 W/m 1,0 C 1,9 C 1,6 km/h (1 Bft)
17.11.2019 02:10 1,9 C 1,9 C 94 % 1019,5 hPa 0,0 l/m 1,3 km/h (1 Bft) NW 324 0 min 0 W/m 1,0 C 1,9 C 3,2 km/h (1 Bft)
17.11.2019 02:05 1,9 C 1,9 C 94 % 1019,7 hPa 0,0 l/m 2,1 km/h (1 Bft) NW 324 0 min 0 W/m 1,0 C 1,9 C 3,2 km/h (1 Bft)
17.11.2019 02:00 1,9 C 1,8 C 94 % 1019,7 hPa 0,0 l/m 0,9 km/h (0 Bft) NW 324 0 min 0 W/m 1,0 C 1,9 C 3,2 km/h (1 Bft)
17.11.2019 01:55 1,8 C 1,8 C 94 % 1019,7 hPa 0,0 l/m 1,7 km/h (1 Bft) NW 324 0 min 0 W/m 0,9 C 1,8 C 3,2 km/h (1 Bft)
17.11.2019 01:50 1,9 C 1,8 C 94 % 1019,8 hPa 0,0 l/m 2,3 km/h (1 Bft) NW 324 0 min 0 W/m 1,0 C 1,9 C 3,2 km/h (1 Bft)
17.11.2019 01:45 1,9 C 1,9 C 94 % 1020,0 hPa 0,0 l/m 1,9 km/h (1 Bft) NW 324 0 min 0 W/m 1,0 C 1,9 C 4,8 km/h (1 Bft)
17.11.2019 01:40 1,9 C 1,9 C 94 % 1020,1 hPa 0,0 l/m 1,1 km/h (1 Bft) NW 324 0 min 0 W/m 1,0 C 1,9 C 3,2 km/h (1 Bft)
17.11.2019 01:35 1,9 C 1,9 C 94 % 1020,1 hPa 0,0 l/m 2,2 km/h (1 Bft) NW 324 0 min 0 W/m 1,0 C 1,9 C 4,8 km/h (1 Bft)
17.11.2019 01:30 1,9 C 1,9 C 94 % 1020,2 hPa 0,0 l/m 0,6 km/h (0 Bft) NW 323 0 min 0 W/m 1,0 C 1,9 C 3,2 km/h (1 Bft)
17.11.2019 01:25 1,9 C 1,9 C 94 % 1020,3 hPa 0,0 l/m 0,0 km/h (0 Bft) NW 323 0 min 0 W/m 1,0 C 1,9 C 0,0 km/h (0 Bft)
17.11.2019 01:20 1,9 C 1,9 C 94 % 1020,4 hPa 0,0 l/m 0,0 km/h (0 Bft) NW 323 0 min 0 W/m 1,0 C 1,9 C 0,0 km/h (0 Bft)
17.11.2019 01:15 2,0 C 1,9 C 94 % 1020,6 hPa 0,0 l/m 0,0 km/h (0 Bft) NW 323 0 min 0 W/m 1,1 C 2,0 C 0,0 km/h (0 Bft)
17.11.2019 01:10 2,0 C 2,0 C 94 % 1020,6 hPa 0,0 l/m 0,0 km/h (0 Bft) NW 323 0 min 0 W/m 1,1 C 2,0 C 0,0 km/h (0 Bft)
17.11.2019 01:05 2,1 C 2,0 C 94 % 1020,6 hPa 0,0 l/m 0,0 km/h (0 Bft) NW 323 0 min 0 W/m 1,2 C 2,1 C 0,0 km/h (0 Bft)
17.11.2019 01:00 2,1 C 2,1 C 94 % 1020,6 hPa 0,0 l/m 0,0 km/h (0 Bft) NW 323 0 min 0 W/m 1,2 C 2,1 C 0,0 km/h (0 Bft)
17.11.2019 00:55 2,1 C 2,1 C 94 % 1020,6 hPa 0,0 l/m 0,0 km/h (0 Bft) NW 323 0 min 0 W/m 1,2 C 2,1 C 0,0 km/h (0 Bft)
17.11.2019 00:50 2,1 C 2,1 C 94 % 1020,6 hPa 0,0 l/m 0,0 km/h (0 Bft) NW 323 0 min 0 W/m 1,2 C 2,1 C 0,0 km/h (0 Bft)
17.11.2019 00:45 2,2 C 2,2 C 94 % 1020,7 hPa 0,0 l/m 0,0 km/h (0 Bft) NW 323 0 min 0 W/m 1,3 C 2,2 C 0,0 km/h (0 Bft)
17.11.2019 00:40 2,2 C 2,2 C 94 % 1020,7 hPa 0,0 l/m 0,0 km/h (0 Bft) NW 323 0 min 0 W/m 1,3 C 2,2 C 0,0 km/h (0 Bft)
17.11.2019 00:35 2,2 C 2,2 C 94 % 1020,7 hPa 0,0 l/m 0,0 km/h (0 Bft) NW 323 0 min 0 W/m 1,3 C 2,2 C 0,0 km/h (0 Bft)
17.11.2019 00:30 2,2 C 2,2 C 94 % 1020,8 hPa 0,0 l/m 0,0 km/h (0 Bft) NW 323 0 min 0 W/m 1,3 C 2,2 C 1,6 km/h (1 Bft)
17.11.2019 00:25 2,3 C 2,3 C 94 % 1020,8 hPa 0,0 l/m 0,2 km/h (0 Bft) NW 323 0 min 0 W/m 1,4 C 2,3 C 3,2 km/h (1 Bft)
17.11.2019 00:20 2,3 C 2,3 C 94 % 1020,8 hPa 0,0 l/m 0,4 km/h (0 Bft) NW 323 0 min 0 W/m 1,4 C 2,3 C 3,2 km/h (1 Bft)
17.11.2019 00:15 2,3 C 2,3 C 94 % 1020,8 hPa 0,0 l/m 0,0 km/h (0 Bft) NW 323 0 min 0 W/m 1,4 C 2,3 C 1,6 km/h (1 Bft)
17.11.2019 00:10 2,4 C 2,3 C 94 % 1020,8 hPa 0,0 l/m 0,0 km/h (0 Bft) NW 323 0 min 0 W/m 1,5 C 2,4 C 0,0 km/h (0 Bft)
17.11.2019 00:05 2,4 C 2,4 C 94 % 1020,7 hPa 0,0 l/m 0,0 km/h (0 Bft) NW 323 0 min 0 W/m 1,5 C 2,4 C 0,0 km/h (0 Bft)
17.11.2019 00:00 2,4 C 2,4 C 94 % 1020,7 hPa 0,0 l/m 0,0 km/h (0 Bft) NW 323 0 min 0 W/m 1,5 C 2,4 C 0,0 km/h (0 Bft)
_ Min-Zeit 01:50 01:50 00:00 03:35 - 00:00 - - - - 01:55 01:55 00:00
Minimum _ 1,8 C 1,8 C 94 % 1018,6 hPa - 0,0 km/h (0 Bft) - - - - 0,9 C 1,8 C 0,0 km/h (0 Bft)
_ Max-Zeit 00:00 00:00 02:20 00:10 00:00 03:25 - - 00:00 00:00 00:00 00:00 01:35
Maximum _ 2,4 C 2,4 C 95 % 1020,8 hPa 0,0 l/m 2,6 km/h
NW (1 Bft)
- - 0 min 0 W/m 1,5 C 2,4 C 4,8 km/h
NW (1 Bft)
Durchschnitt _ 2,0 C 2,0 C 94 % 1019,9 hPa #0,0 l/m 0,6 km/h (0 Bft) NW - #0 min. 0 W/m 1,2 C 2,0 C 1,8 km/h (1 Bft)